TimeMDT,TemperatureF,Dew PointF,Humidity,Sea Level PressureIn,VisibilityMPH,Wind Direction,Wind SpeedMPH,Gust SpeedMPH,PrecipitationIn,Events,Conditions,WindDirDegrees,DateUTC
12:10 AM,48.2,44.6,87,30.35,10.0,Calm,Calm,-,N/A,,Clear,0,2013-09-05 06:10:00
12:30 AM,48.2,44.6,87,30.35,10.0,Calm,Calm,-,N/A,,Clear,0,2013-09-05 06:30:00
12:50 AM,48.2,42.8,82,30.34,10.0,Calm,Calm,-,N/A,,Clear,0,2013-09-05 06:50:00
1:10 AM,46.4,41.0,81,30.34,10.0,Calm,Calm,-,N/A,,Clear,0,2013-09-05 07:10:00
1:30 AM,46.4,41.0,81,30.34,10.0,Calm,Calm,-,N/A,,Clear,0,2013-09-05 07:30:00
1:50 AM,44.6,41.0,87,30.34,10.0,Calm,Calm,-,N/A,,Clear,0,2013-09-05 07:50:00
2:10 AM,44.6,41.0,87,30.33,10.0,WSW,3.5,-,N/A,,Clear,240,2013-09-05 08:10:00
2:30 AM,46.4,41.0,81,30.33,10.0,Calm,Calm,-,N/A,,Clear,0,2013-09-05 08:30:00
2:50 AM,44.6,39.2,81,30.33,10.0,Calm,Calm,-,N/A,,Clear,0,2013-09-05 08:50:00
3:10 AM,42.8,39.2,87,30.33,10.0,Calm,Calm,-,N/A,,Clear,0,2013-09-05 09:10:00
3:30 AM,42.8,39.2,87,30.33,10.0,Calm,Calm,-,N/A,,Clear,0,2013-09-05 09:30:00
3:50 AM,41.0,37.4,87,30.32,10.0,Calm,Calm,-,N/A,,Clear,0,2013-09-05 09:50:00
4:10 AM,41.0,37.4,87,30.32,10.0,Calm,Calm,-,N/A,,Clear,0,2013-09-05 10:10:00
4:30 AM,41.0,37.4,87,30.32,10.0,Calm,Calm,-,N/A,,Clear,0,2013-09-05 10:30:00
4:50 AM,41.0,35.6,81,30.32,10.0,Calm,Calm,-,N/A,,Clear,0,2013-09-05 10:50:00
5:10 AM,39.2,35.6,87,30.32,10.0,SSW,3.5,-,N/A,,Clear,210,2013-09-05 11:10:00
5:30 AM,39.2,35.6,87,30.33,10.0,Calm,Calm,-,N/A,,Clear,0,2013-09-05 11:30:00
5:50 AM,39.2,35.6,87,30.33,10.0,Calm,Calm,-,N/A,,Clear,0,2013-09-05 11:50:00
6:10 AM,39.2,39.2,100,30.33,10.0,Calm,Calm,-,N/A,,Clear,0,2013-09-05 12:10:00
6:30 AM,39.2,39.2,100,30.34,10.0,Calm,Calm,-,N/A,,Scattered Clouds,0,2013-09-05 12:30:00
6:50 AM,39.2,39.2,100,30.34,10.0,Calm,Calm,-,N/A,,Partly Cloudy,0,2013-09-05 12:50:00
7:10 AM,39.2,39.2,100,30.34,10.0,Calm,Calm,-,N/A,,Clear,0,2013-09-05 13:10:00
7:30 AM,41.0,41.0,100,30.35,10.0,Calm,Calm,-,N/A,,Mostly Cloudy,0,2013-09-05 13:30:00
7:50 AM,44.6,42.8,93,30.34,10.0,Calm,Calm,-,N/A,,Overcast,0,2013-09-05 13:50:00
8:10 AM,44.6,41.0,87,30.34,10.0,Calm,Calm,-,N/A,,Mostly Cloudy,0,2013-09-05 14:10:00
8:30 AM,48.2,42.8,82,30.34,10.0,Calm,Calm,-,N/A,,Mostly Cloudy,0,2013-09-05 14:30:00
8:50 AM,50.0,46.4,87,30.35,10.0,Calm,Calm,-,N/A,,Overcast,0,2013-09-05 14:50:00
9:10 AM,50.0,46.4,87,30.35,10.0,Calm,Calm,-,N/A,,Overcast,0,2013-09-05 15:10:00
9:30 AM,51.8,48.2,88,30.35,10.0,Calm,Calm,-,N/A,,Overcast,0,2013-09-05 15:30:00
9:50 AM,55.4,50.0,82,30.36,10.0,Calm,Calm,-,N/A,,Overcast,0,2013-09-05 15:50:00
10:10 AM,55.4,50.0,82,30.35,10.0,Calm,Calm,-,N/A,,Mostly Cloudy,0,2013-09-05 16:10:00
10:30 AM,59.0,55.4,88,30.35,10.0,NNE,4.6,-,N/A,,Scattered Clouds,30,2013-09-05 16:30:00
10:50 AM,62.6,57.2,82,30.34,10.0,Calm,Calm,-,N/A,,Partly Cloudy,0,2013-09-05 16:50:00
11:10 AM,66.2,60.8,83,30.33,10.0,NE,3.5,-,N/A,,Clear,40,2013-09-05 17:10:00
11:30 AM,68.0,64.4,88,30.32,10.0,Calm,Calm,-,N/A,,Clear,0,2013-09-05 17:30:00
11:50 AM,69.8,64.4,83,30.33,10.0,Calm,Calm,-,N/A,,Partly Cloudy,0,2013-09-05 17:50:00
12:10 PM,71.6,66.2,83,30.34,10.0,SW,20.7,27.6,N/A,,Mostly Cloudy,220,2013-09-05 18:10:00
12:30 PM,71.6,66.2,83,30.34,10.0,WSW,10.4,18.4,N/A,,Mostly Cloudy,240,2013-09-05 18:30:00
12:50 PM,68.0,64.4,88,30.34,10.0,SW,13.8,18.4,N/A,,Mostly Cloudy,230,2013-09-05 18:50:00
1:10 PM,68.0,62.6,83,30.35,10.0,WSW,9.2,19.6,N/A,,Mostly Cloudy,250,2013-09-05 19:10:00
1:30 PM,68.0,62.6,83,30.35,10.0,West,6.9,16.1,N/A,,Mostly Cloudy,270,2013-09-05 19:30:00
1:50 PM,66.2,62.6,88,30.34,10.0,WSW,4.6,-,N/A,Rain,Light Rain,240,2013-09-05 19:50:00
2:10 PM,68.0,64.4,88,30.32,10.0,ENE,3.5,-,N/A,,Partly Cloudy,70,2013-09-05 20:10:00
2:30 PM,71.6,66.2,83,30.31,10.0,Calm,Calm,-,N/A,,Clear,0,2013-09-05 20:30:00
2:50 PM,75.2,69.8,83,30.30,10.0,WSW,10.4,17.3,N/A,,Partly Cloudy,250,2013-09-05 20:50:00
3:10 PM,77.0,71.6,83,30.29,10.0,SSW,16.1,23.0,N/A,,Partly Cloudy,210,2013-09-05 21:10:00
3:30 PM,77.0,71.6,83,30.28,10.0,SW,10.4,23.0,N/A,,Clear,220,2013-09-05 21:30:00
3:50 PM,77.0,73.4,89,30.27,10.0,SSW,16.1,24.2,N/A,,Clear,210,2013-09-05 21:50:00
4:10 PM,77.0,71.6,83,30.27,10.0,SW,9.2,20.7,N/A,,Clear,220,2013-09-05 22:10:00
4:30 PM,77.0,71.6,83,30.26,10.0,SSW,11.5,20.7,N/A,,Clear,210,2013-09-05 22:30:00
4:50 PM,77.0,73.4,89,30.25,10.0,SW,17.3,23.0,N/A,,Partly Cloudy,220,2013-09-05 22:50:00
5:10 PM,77.0,71.6,83,30.24,10.0,SW,13.8,25.3,N/A,,Clear,220,2013-09-05 23:10:00
5:30 PM,77.0,73.4,89,30.24,10.0,SSW,13.8,19.6,N/A,,Clear,210,2013-09-05 23:30:00
5:50 PM,75.2,69.8,83,30.23,10.0,South,9.2,-,N/A,,Clear,190,2013-09-05 23:50:00
6:10 PM,75.2,71.6,89,30.22,10.0,SW,6.9,-,N/A,,Clear,220,2013-09-06 00:10:00
6:30 PM,75.2,71.6,89,30.22,10.0,SW,9.2,-,N/A,,Clear,220,2013-09-06 00:30:00
6:50 PM,75.2,69.8,83,30.22,10.0,WSW,8.1,-,N/A,,Clear,240,2013-09-06 00:50:00
7:10 PM,73.4,68.0,83,30.22,10.0,WSW,3.5,-,N/A,,Partly Cloudy,250,2013-09-06 01:10:00
7:30 PM,71.6,66.2,83,30.22,10.0,WNW,3.5,-,N/A,,Partly Cloudy,300,2013-09-06 01:30:00
7:50 PM,68.0,64.4,88,30.21,10.0,Calm,Calm,-,N/A,,Clear,0,2013-09-06 01:50:00
8:10 PM,64.4,59.0,83,30.21,10.0,Calm,Calm,-,N/A,,Clear,0,2013-09-06 02:10:00
8:30 PM,62.6,57.2,82,30.23,10.0,SSE,4.6,-,N/A,,Partly Cloudy,160,2013-09-06 02:30:00
8:50 PM,62.6,57.2,82,30.23,10.0,South,3.5,-,N/A,,Clear,190,2013-09-06 02:50:00
9:10 PM,59.0,53.6,82,30.24,10.0,Calm,Calm,-,N/A,,Partly Cloudy,0,2013-09-06 03:10:00
9:30 PM,57.2,53.6,88,30.24,10.0,Calm,Calm,-,N/A,,Partly Cloudy,0,2013-09-06 03:30:00
9:50 PM,55.4,50.0,82,30.25,10.0,Calm,Calm,-,N/A,,Scattered Clouds,0,2013-09-06 03:50:00
10:10 PM,55.4,50.0,82,30.26,10.0,Calm,Calm,-,N/A,,Partly Cloudy,0,2013-09-06 04:10:00
10:30 PM,55.4,50.0,82,30.26,10.0,SSW,3.5,-,N/A,,Partly Cloudy,210,2013-09-06 04:30:00
10:50 PM,55.4,50.0,82,30.26,10.0,Calm,Calm,-,N/A,,Mostly Cloudy,0,2013-09-06 04:50:00
11:10 PM,53.6,48.2,82,30.26,10.0,Calm,Calm,-,N/A,,Partly Cloudy,0,2013-09-06 05:10:00
11:30 PM,53.6,48.2,82,30.27,10.0,Calm,Calm,-,N/A,,Clear,0,2013-09-06 05:30:00
11:50 PM,53.6,48.2,82,30.27,10.0,Calm,Calm,-,N/A,,Clear,0,2013-09-06 05:50:00